GW6994 Weather Reports


time (UTC)temp
F
wind
direction
speed
knots
gust
knots
rain 1hr
in
rain 24hr
in
rain mn
in
humidity
%
barometer
mb
20260505071634 64 106 1.7 1.7 0.00 0.00 0.00 75 1045.4
20260505071132 65 104 0.0 1.7 0.00 0.00 0.00 75 1045.4
20260505070629 65 115 1.7 2.6 0.00 0.00 0.00 74 1045.3
20260505070125 65 126 1.7 2.6 0.00 0.00 0.00 74 1045.5
20260505065621 64 110 1.7 2.6 0.00 0.00 0.00 74 1045.5
20260505065118 64 131 0.0 1.7 0.00 0.00 0.00 74 1045.5
20260505064615 64 151 1.7 1.7 0.00 0.00 0.00 74 1045.4
20260505064114 64 127 1.7 1.7 0.00 0.00 0.00 74 1045.3
20260505063610 64 200 0.9 2.6 0.00 0.00 0.00 74 1045.1
20260505063106 64 178 0.9 2.6 0.00 0.00 0.00 75 1045.3
20260505062603 64 175 1.7 2.6 0.00 0.00 0.00 75 1045.0
20260505062100 64 192 2.6 3.5 0.00 0.00 0.00 75 1044.9
20260505061557 64 178 2.6 3.5 0.00 0.00 0.00 75 1045.0
20260505061055 64 184 2.6 4.3 0.00 0.00 0.00 75 1044.6
20260505060553 64 199 2.6 5.2 0.00 0.00 0.00 76 1044.8
20260505060049 64 199 2.6 5.2 0.00 0.00 0.00 76 1044.6
20260505055544 64 185 1.7 4.3 0.00 0.00 0.00 75 1044.7
20260505055041 64 202 1.7 4.3 0.00 0.00 0.00 75 1044.6
20260505054539 64 190 1.7 3.5 0.00 0.00 0.00 74 1044.7
20260505054037 64 160 1.7 3.5 0.00 0.00 0.00 74 1045.0
20260505053534 64 178 1.7 3.5 0.00 0.00 0.00 75 1045.1
20260505053030 63 204 1.7 2.6 0.00 0.00 0.00 76 1045.4
20260505052527 64 194 1.7 3.5 0.00 0.00 0.00 74 1045.2
20260505052025 65 150 2.6 5.2 0.00 0.00 0.00 73 1045.0
20260505051521 65 149 1.7 3.5 0.00 0.00 0.00 72 1045.2
20260505051020 65 141 1.7 1.7 0.00 0.00 0.00 72 1045.0
20260505050517 65 160 1.7 1.7 0.00 0.00 0.00 72 1045.3
20260505041445 67 217 1.7 5.2 0.00 0.00 0.00 68 1045.4
20260505040942 68 231 3.5 7.0 0.00 0.00 0.00 67 1045.5
20260505040440 68 220 5.2 5.2 0.00 0.00 0.00 66 1045.6
20260505035936 68 217 2.6 5.2 0.00 0.00 0.00 66 1045.5
20260505035432 68 205 3.5 4.3 0.00 0.00 0.00 66 1045.4
20260505034930 68 193 5.2 5.2 0.00 0.00 0.00 66 1045.7
20260505034426 68 231 3.5 5.2 0.00 0.00 0.00 66 1045.7
20260505033924 68 203 1.7 3.5 0.00 0.00 0.00 68 1045.7
20260505033420 68 205 1.7 3.5 0.00 0.00 0.00 67 1046.0
20260505032918 69 248 1.7 4.3 0.00 0.00 0.00 65 1046.0
20260505032415 69 225 1.7 3.5 0.00 0.00 0.00 63 1045.7
20260505031911 70 178 2.6 4.3 0.00 0.00 0.00 62 1045.6
20260505031408 70 228 2.6 4.3 0.00 0.00 0.00 62 1045.7
20260505030905 70 174 4.3 5.2 0.00 0.00 0.00 61 1045.6
20260505030401 70 183 3.5 5.2 0.00 0.00 0.00 61 1045.5
20260505025857 71 178 4.3 7.0 0.00 0.00 0.00 61 1045.3
20260505025355 71 181 2.6 5.2 0.00 0.00 0.00 60 1045.6
20260505024853 71 189 2.6 4.3 0.00 0.00 0.00 60 1045.6
20260505024350 71 200 6.1 7.8 0.00 0.00 0.00 59 1045.6
20260505023847 71 208 3.5 7.8 0.00 0.00 0.00 61 1045.3
20260505023345 71 205 6.1 7.8 0.00 0.00 0.00 59 1045.4
20260505022842 71 212 3.5 6.1 0.00 0.00 0.00 59 1045.2
20260505022338 72 220 4.3 9.6 0.00 0.00 0.00 58 1045.3
20260505021836 72 224 7.8 9.6 0.00 0.00 0.00 57 1045.0
20260505021332 72 200 4.3 10.4 0.00 0.00 0.00 57 1044.8
20260505020828 72 179 1.7 8.7 0.00 0.00 0.00 58 1044.8
20260505020324 72 213 5.2 10.4 0.00 0.00 0.00 57 1044.8
20260505015821 72 208 6.1 10.4 0.00 0.00 0.00 57 1044.6
20260505015318 73 200 5.2 11.3 0.00 0.00 0.00 57 1044.6
20260505014815 72 208 6.1 9.6 0.00 0.00 0.00 57 1044.6
20260505014312 72 222 6.1 7.8 0.00 0.00 0.00 58 1044.4
20260505013808 72 203 5.2 9.6 0.00 0.00 0.00 57 1044.5
20260505013306 72 218 5.2 7.8 0.00 0.00 0.00 58 1044.4
20260505012804 72 208 3.5 6.1 0.00 0.00 0.00 58 1044.3
20260505012304 72 202 5.2 6.1 0.00 0.00 0.00 58 1044.2
20260505011757 72 215 5.2 5.2 0.00 0.00 0.00 58 1044.4
20260505011254 72 204 1.7 7.0 0.00 0.00 0.00 58 1044.2
20260505010750 73 213 3.5 7.8 0.00 0.00 0.00 57 1044.3
20260505010247 73 213 5.2 7.8 0.00 0.00 0.00 56 1044.1
20260505005743 73 213 4.3 5.2 0.00 0.00 0.00 55 1044.0
20260505005240 74 222 7.0 10.4 0.00 0.00 0.00 54 1043.9
20260505004737 74 228 6.1 9.6 0.00 0.00 0.00 53 1043.9
20260505004233 74 231 7.0 9.6 0.00 0.00 0.00 53 1043.8
20260505003730 75 211 10.4 12.2 0.00 0.00 0.00 52 1043.8
20260505003228 75 203 4.3 7.8 0.00 0.00 0.00 53 1043.7
20260505002724 75 195 4.3 9.6 0.00 0.00 0.00 52 1043.7
20260505002222 76 221 7.8 11.3 0.00 0.00 0.00 52 1043.8
20260505001719 75 210 5.2 11.3 0.00 0.00 0.00 52 1043.9
20260505001217 76 213 7.8 15.6 0.00 0.00 0.00 51 1043.8
20260505000714 76 216 5.2 13.0 0.00 0.00 0.00 52 1043.8
20260505000211 76 203 7.8 15.6 0.00 0.00 0.00 51 1043.8
20260504235708 77 216 7.8 12.2 0.00 0.00 0.00 51 1043.9
20260504235204 77 209 5.2 17.4 0.00 0.00 0.00 51 1043.8
20260504234701 77 221 8.7 13.9 0.00 0.00 0.00 51 1043.8
20260504234158 77 213 5.2 10.4 0.00 0.00 0.00 53 1044.0
20260504233654 78 218 7.8 13.0 0.00 0.00 0.00 50 1044.0
20260504233150 78 211 6.1 10.4 0.00 0.00 0.00 50 1043.9
20260504232648 77 196 5.2 11.3 0.00 0.00 0.00 52 1043.8
20260504232145 78 175 9.6 10.4 0.00 0.00 0.00 50 1043.9
20260504231642 78 207 7.0 10.4 0.00 0.00 0.00 51 1044.2
20260504231138 78 200 11.3 15.6 0.00 0.00 0.00 49 1044.2
20260504230634 79 195 7.0 13.9 0.00 0.00 0.00 50 1044.1
20260504230133 80 220 7.8 10.4 0.00 0.00 0.00 50 1044.3
20260504225631 80 198 7.0 12.2 0.00 0.00 0.00 51 1044.1
20260504225127 80 225 3.5 11.3 0.00 0.00 0.00 51 1044.3
20260504224624 80 220 3.5 8.7 0.00 0.00 0.00 52 1044.2
20260504224120 80 190 3.5 7.8 0.00 0.00 0.00 52 1044.1
20260504223617 79 198 4.3 11.3 0.00 0.00 0.00 53 1044.1
20260504223113 78 208 5.2 9.6 0.00 0.00 0.00 53 1044.4
20260504222611 78 226 8.7 13.0 0.00 0.00 0.00 52 1044.4
20260504222108 80 222 6.1 9.6 0.00 0.00 0.00 52 1044.4
20260504221605 80 211 5.2 7.8 0.00 0.00 0.00 50 1044.2
20260504221101 80 212 4.3 11.3 0.00 0.00 0.00 52 1044.2
20260504220558 78 228 7.0 13.0 0.00 0.00 0.00 51 1044.2
20260504220055 78 210 6.1 13.9 0.00 0.00 0.00 50 1044.2
20260504215552 80 249 11.3 17.4 0.00 0.00 0.00 48 1044.4
20260504215049 79 213 7.8 13.9 0.00 0.00 0.00 49 1044.4
20260504214544 80 233 13.0 16.5 0.00 0.00 0.00 47 1044.3
20260504214041 80 238 4.3 7.8 0.00 0.00 0.00 53 1044.3
20260504213538 80 215 5.2 12.2 0.00 0.00 0.00 51 1044.3
20260504213035 80 254 11.3 14.8 0.00 0.00 0.00 48 1044.5
20260504212531 80 228 6.1 16.5 0.00 0.00 0.00 50 1044.3
20260504212028 80 202 7.0 15.6 0.00 0.00 0.00 49 1044.5
20260504211525 80 201 8.7 16.5 0.00 0.00 0.00 48 1044.4
20260504211022 80 221 5.2 15.6 0.00 0.00 0.00 50 1044.5
20260504210519 80 226 10.4 18.2 0.00 0.00 0.00 48 1044.5
20260504210016 80 215 9.6 22.6 0.00 0.00 0.00 48 1044.4
20260504205514 80 216 14.8 19.1 0.00 0.00 0.00 48 1044.8
20260504205012 80 229 12.2 16.5 0.00 0.00 0.00 48 1044.6
20260504204509 81 217 15.6 20.0 0.00 0.00 0.00 47 1044.5
20260504204008 80 212 10.4 18.2 0.00 0.00 0.00 49 1044.7
20260504203506 81 181 8.7 14.8 0.00 0.00 0.00 50 1044.8
20260504203002 81 229 8.7 14.8 0.00 0.00 0.00 49 1044.7
20260504202458 80 234 12.2 20.0 0.00 0.00 0.00 48 1044.6
20260504201955 80 210 7.0 13.0 0.00 0.00 0.00 51 1044.9
20260504201452 78 228 8.7 20.0 0.00 0.00 0.00 49 1045.0
20260504200950 80 235 16.5 18.2 0.00 0.00 0.00 47 1045.1
20260504200446 80 218 14.8 21.7 0.00 0.00 0.00 48 1044.9
20260504195943 80 223 16.5 17.4 0.00 0.00 0.00 48 1044.9
20260504195439 79 208 18.2 22.6 0.00 0.00 0.00 48 1045.2
20260504194936 81 199 8.7 16.5 0.00 0.00 0.00 48 1045.2
20260504194432 81 211 13.0 18.2 0.00 0.00 0.00 47 1045.1
20260504193928 80 217 9.6 18.2 0.00 0.00 0.00 47 1045.3
20260504193425 80 224 11.3 17.4 0.00 0.00 0.00 48 1045.2
20260504192924 80 205 12.2 15.6 0.00 0.00 0.00 46 1045.4
20260504192421 80 215 9.6 16.5 0.00 0.00 0.00 50 1045.4
20260504191920 80 205 13.0 17.4 0.00 0.00 0.00 47 1045.4
20260504191417 80 226 11.3 20.0 0.00 0.00 0.00 49 1045.4
20260504190912 80 237 11.3 15.6 0.00 0.00 0.00 50 1045.6
20260504190408 80 256 11.3 18.2 0.00 0.00 0.00 50 1045.5
20260504185905 80 211 10.4 16.5 0.00 0.00 0.00 49 1045.8
20260504185402 80 229 7.8 16.5 0.00 0.00 0.00 52 1045.7
20260504184858 79 207 7.8 20.0 0.00 0.00 0.00 49 1045.8
20260504184354 80 238 8.7 14.8 0.00 0.00 0.00 49 1045.8
20260504183850 80 216 4.3 16.5 0.00 0.00 0.00 50 1045.9
20260504183348 79 182 9.6 14.8 0.00 0.00 0.00 46 1046.1
20260504182845 79 232 12.2 15.6 0.00 0.00 0.00 47 1046.0
20260504182342 80 222 12.2 18.2 0.00 0.00 0.00 49 1045.8
20260504181839 79 221 6.1 17.4 0.00 0.00 0.00 50 1045.9
20260504181337 78 224 13.0 20.0 0.00 0.00 0.00 49 1046.0
20260504180835 77 217 8.7 14.8 0.00 0.00 0.00 52 1046.2
20260504180333 77 203 9.6 13.9 0.00 0.00 0.00 51 1046.1
20260504175831 77 256 7.8 13.0 0.00 0.00 0.00 51 1046.0
20260504175328 78 217 11.3 16.5 0.00 0.00 0.00 51 1046.0
20260504174826 79 207 5.2 17.4 0.00 0.00 0.00 53 1046.0
20260504174323 79 233 12.2 16.5 0.00 0.00 0.00 50 1046.0
20260504173820 78 197 11.3 16.5 0.00 0.00 0.00 49 1045.9
20260504173317 78 220 14.8 17.4 0.00 0.00 0.00 50 1046.1
20260504172814 78 219 13.9 18.2 0.00 0.00 0.00 50 1045.8
20260504172310 78 237 12.2 16.5 0.00 0.00 0.00 50 1045.8
20260504171806 78 234 13.9 16.5 0.00 0.00 0.00 48 1045.9
20260504171304 78 228 8.7 18.2 0.00 0.00 0.00 50 1045.9
20260504170801 78 215 8.7 14.8 0.00 0.00 0.00 50 1046.2
20260504170258 77 232 10.4 17.4 0.00 0.00 0.00 51 1045.9
20260504160216 76 222 7.8 15.6 0.00 0.00 0.00 51 1046.3
20260504151144 73 215 10.4 16.5 0.00 0.00 0.00 50 1046.5
20260504150641 73 216 11.3 15.6 0.00 0.00 0.00 53 1046.8
20260504150138 72 194 7.8 13.9 0.00 0.00 0.00 53 1046.8
20260504141107 70 212 7.8 15.6 0.00 0.00 0.00 56 1047.3
20260504140603 69 180 11.3 13.9 0.00 0.00 0.00 54 1047.3
20260504130527 66 213 4.3 13.9 0.00 0.00 0.00 58 1047.8
20260504110415 63 205 7.8 9.6 0.00 0.00 0.00 57 1048.0
20260504100331 64 203 7.0 7.8 0.00 0.00 0.00 55 1048.5
20260504081725 65 218 6.1 7.0 0.00 0.00 0.00 57 1048.7
20260504081221 66 216 5.2 13.0 0.00 0.00 0.00 56 1048.6
20260504080718 66 199 5.2 11.3 0.00 0.00 0.00 57 1048.6
20260504080215 66 202 8.7 13.9 0.00 0.00 0.00 56 1048.6